TimeEST,TemperatureF,Dew PointF,Humidity,Sea Level PressureIn,VisibilityMPH,Wind Direction,Wind SpeedMPH,Gust SpeedMPH,PrecipitationIn,Events,Conditions,WindDirDegrees,DateUTC
12:53 AM,48.0,46.9,96,29.91,10.0,Calm,Calm,-,0.06,,Overcast,0,2013-02-13 05:53:00
1:53 AM,48.9,46.9,93,29.88,10.0,North,3.5,-,0.02,Rain,Light Rain,350,2013-02-13 06:53:00
2:53 AM,48.0,46.0,93,29.84,4.0,ESE,4.6,-,0.05,Rain,Rain,120,2013-02-13 07:53:00
3:53 AM,48.0,46.0,93,29.81,7.0,NE,3.5,-,0.04,Rain,Light Rain,50,2013-02-13 08:53:00
4:53 AM,46.9,45.0,93,29.80,10.0,ENE,3.5,-,0.01,,Overcast,60,2013-02-13 09:53:00
5:19 AM,46.4,44.6,93,29.82,6.0,NNE,3.5,-,0.01,,Overcast,30,2013-02-13 10:19:00
5:53 AM,46.9,45.0,93,29.81,5.0,North,3.5,-,0.03,Rain,Light Rain,360,2013-02-13 10:53:00
6:03 AM,46.4,44.6,93,29.82,6.0,North,3.5,-,0.00,Rain,Light Rain,10,2013-02-13 11:03:00
6:37 AM,46.4,44.6,93,29.81,2.5,ENE,3.5,-,0.01,,Overcast,60,2013-02-13 11:37:00
6:47 AM,46.4,44.6,93,29.81,3.0,ENE,4.6,-,0.01,,Overcast,60,2013-02-13 11:47:00
6:53 AM,46.9,45.0,93,29.81,2.5,NE,3.5,-,0.01,,Overcast,50,2013-02-13 11:53:00
7:13 AM,46.4,44.6,93,29.81,2.5,NNE,5.8,-,N/A,,Overcast,30,2013-02-13 12:13:00
7:53 AM,46.9,45.0,93,29.79,2.5,NE,5.8,-,N/A,,Overcast,50,2013-02-13 12:53:00
8:03 AM,46.4,44.6,93,29.80,1.8,NE,5.8,-,N/A,,Overcast,50,2013-02-13 13:03:00
8:26 AM,46.4,46.4,100,29.82,2.5,ENE,4.6,-,0.01,,Overcast,60,2013-02-13 13:26:00
8:48 AM,46.4,46.4,100,29.81,2.0,NE,5.8,-,0.01,,Overcast,40,2013-02-13 13:48:00
8:53 AM,46.9,46.0,97,29.78,2.0,ENE,6.9,-,0.01,,Overcast,60,2013-02-13 13:53:00
8:56 AM,46.4,46.4,100,29.79,1.8,NE,6.9,-,N/A,,Overcast,50,2013-02-13 13:56:00
9:08 AM,46.4,46.4,100,29.81,1.8,NNE,8.1,-,N/A,,Overcast,30,2013-02-13 14:08:00
9:18 AM,46.4,46.4,100,29.81,2.0,NE,4.6,-,N/A,,Overcast,50,2013-02-13 14:18:00
9:53 AM,46.9,46.0,97,29.76,2.5,East,6.9,-,N/A,,Overcast,80,2013-02-13 14:53:00
9:55 AM,46.4,46.4,100,29.76,2.5,East,8.1,-,N/A,,Overcast,90,2013-02-13 14:55:00
9:56 AM,46.4,46.4,100,29.77,5.0,East,6.9,-,N/A,,Overcast,90,2013-02-13 14:56:00
10:53 AM,48.0,46.0,93,29.75,10.0,ENE,4.6,-,N/A,,Overcast,60,2013-02-13 15:53:00
11:44 AM,48.2,46.4,93,29.75,2.5,NNE,4.6,-,N/A,,Overcast,30,2013-02-13 16:44:00
11:53 AM,48.9,46.9,93,29.72,2.0,ESE,4.6,-,N/A,,Overcast,110,2013-02-13 16:53:00
12:04 PM,48.2,46.4,93,29.72,1.8,ESE,4.6,-,N/A,,Overcast,120,2013-02-13 17:04:00
12:53 PM,48.9,46.9,93,29.70,1.8,South,3.5,-,N/A,,Overcast,170,2013-02-13 17:53:00
1:00 PM,48.2,48.2,100,29.71,2.0,Calm,Calm,-,N/A,,Overcast,0,2013-02-13 18:00:00
1:25 PM,48.2,48.2,100,29.66,1.8,SE,5.8,-,N/A,,Overcast,140,2013-02-13 18:25:00
1:35 PM,50.0,48.2,94,29.64,2.5,SE,6.9,-,N/A,,Overcast,140,2013-02-13 18:35:00
1:53 PM,50.0,48.0,93,29.64,2.5,SSE,5.8,-,N/A,,Overcast,160,2013-02-13 18:53:00
2:27 PM,50.0,48.2,94,29.66,1.8,South,6.9,-,N/A,,Overcast,190,2013-02-13 19:27:00
2:53 PM,50.0,48.9,96,29.63,1.8,SSW,5.8,-,0.00,,Overcast,200,2013-02-13 19:53:00
3:10 PM,51.8,50.0,94,29.63,3.0,South,9.2,-,N/A,,Overcast,180,2013-02-13 20:10:00
3:20 PM,51.8,50.0,94,29.65,2.0,SW,8.1,-,N/A,,Overcast,220,2013-02-13 20:20:00
3:35 PM,51.8,50.0,94,29.67,1.8,SW,8.1,-,0.01,,Overcast,230,2013-02-13 20:35:00
3:53 PM,51.1,50.0,96,29.63,1.8,SSW,8.1,-,0.01,,Overcast,210,2013-02-13 20:53:00
4:03 PM,51.8,50.0,94,29.66,2.5,SW,10.4,-,0.00,Rain,Light Rain,230,2013-02-13 21:03:00
4:11 PM,51.8,50.0,94,29.66,6.0,SW,10.4,-,0.00,Rain,Light Rain,220,2013-02-13 21:11:00
4:20 PM,51.8,50.0,94,29.65,9.0,SW,11.5,-,0.00,,Overcast,230,2013-02-13 21:20:00
4:49 PM,53.6,50.0,88,29.68,10.0,WSW,15.0,-,0.00,,Overcast,250,2013-02-13 21:49:00
4:53 PM,53.1,50.0,89,29.65,10.0,WSW,15.0,21.9,0.00,,Overcast,250,2013-02-13 21:53:00
5:53 PM,53.1,48.9,86,29.68,10.0,WSW,11.5,20.7,N/A,,Overcast,250,2013-02-13 22:53:00
6:53 PM,52.0,48.0,86,29.70,10.0,WSW,11.5,-,N/A,,Mostly Cloudy,250,2013-02-13 23:53:00
7:53 PM,52.0,46.9,83,29.72,10.0,WSW,10.4,-,N/A,,Overcast,250,2013-02-14 00:53:00
8:53 PM,51.1,46.0,83,29.74,10.0,West,13.8,-,N/A,,Mostly Cloudy,260,2013-02-14 01:53:00
9:05 PM,51.8,46.4,82,29.75,10.0,West,10.4,-,N/A,,Scattered Clouds,260,2013-02-14 02:05:00
9:53 PM,50.0,46.0,86,29.77,10.0,WSW,8.1,-,N/A,,Clear,250,2013-02-14 02:53:00
10:53 PM,48.0,46.0,93,29.79,10.0,West,5.8,-,N/A,,Clear,260,2013-02-14 03:53:00
11:53 PM,48.9,44.1,83,29.81,10.0,WNW,8.1,-,N/A,,Clear,290,2013-02-14 04:53:00